Time,TemperatureF,DewpointF,PressureIn,WindDirection,WindDirectionDegrees,WindSpeedMPH,WindSpeedGustMPH,Humidity,HourlyPrecipIn,Conditions,Clouds,dailyrainin,SoftwareType,DateUTC
2013-03-22 00:00:00,23.8,15.8,30.06,WNW,292,0.0,0.0,71,0.00,,---,0.00,VWS V14.01,2013-03-22 04:00:00,
2013-03-22 00:01:00,23.9,15.9,30.06,WNW,293,0.0,0.0,71,0.00,,---,0.00,VWS V14.01,2013-03-22 04:01:00,
2013-03-22 00:07:00,23.9,15.9,30.06,WNW,291,0.0,0.0,71,0.00,,---,0.00,VWS V14.01,2013-03-22 04:07:00,
2013-03-22 00:12:00,23.6,15.9,30.06,WNW,290,0.0,0.0,72,0.00,,---,0.00,VWS V14.01,2013-03-22 04:12:00,
2013-03-22 00:17:00,23.4,16.0,30.06,WNW,291,0.0,0.0,73,0.00,,---,0.00,VWS V14.01,2013-03-22 04:17:00,
2013-03-22 00:22:00,23.4,16.4,30.06,WNW,293,0.0,0.0,74,0.00,,---,0.00,VWS V14.01,2013-03-22 04:22:00,
2013-03-22 00:27:00,23.5,16.8,30.06,WNW,293,0.0,0.0,75,0.00,,---,0.00,VWS V14.01,2013-03-22 04:27:00,
2013-03-22 00:30:00,23.4,16.7,30.06,WNW,292,0.0,0.0,75,0.00,,---,0.00,VWS V15.00,2013-03-22 04:30:00,
2013-03-22 00:32:00,23.4,16.7,30.06,WNW,293,0.0,0.0,75,0.00,,---,0.00,VWS V14.01,2013-03-22 04:32:00,
2013-03-22 00:37:00,23.2,16.5,30.06,WNW,291,0.0,0.0,75,0.00,,---,0.00,VWS V14.01,2013-03-22 04:37:00,
2013-03-22 00:42:00,23.0,16.3,30.06,WNW,290,0.0,0.0,75,0.00,,---,0.00,VWS V14.01,2013-03-22 04:42:00,
2013-03-22 00:47:00,22.9,16.2,30.05,WNW,290,0.0,0.0,75,0.00,,---,0.00,VWS V14.01,2013-03-22 04:47:00,
2013-03-22 00:52:00,22.9,15.9,30.06,WNW,290,0.0,0.0,74,0.00,,---,0.00,VWS V14.01,2013-03-22 04:52:00,
2013-03-22 00:57:00,23.0,15.6,30.06,WNW,290,0.0,0.0,73,0.00,,---,0.00,VWS V14.01,2013-03-22 04:57:00,
2013-03-22 01:00:00,23.0,16.0,30.06,WNW,290,0.0,0.0,74,0.00,,---,0.00,VWS V15.00,2013-03-22 05:00:00,
2013-03-22 01:02:00,23.1,16.1,30.06,WNW,290,0.0,0.0,74,0.00,,---,0.00,VWS V14.01,2013-03-22 05:02:00,
2013-03-22 01:07:00,22.9,15.9,30.06,WNW,291,0.0,0.0,74,0.00,,---,0.00,VWS V14.01,2013-03-22 05:07:00,
2013-03-22 01:12:00,22.7,15.7,30.06,WNW,290,0.0,0.0,74,0.00,,---,0.00,VWS V14.01,2013-03-22 05:12:00,
2013-03-22 01:17:00,22.4,15.1,30.06,WNW,290,0.0,0.0,73,0.00,,---,0.00,VWS V14.01,2013-03-22 05:17:00,
2013-03-22 01:22:00,22.1,15.4,30.05,WNW,290,0.0,0.0,75,0.00,,---,0.00,VWS V14.01,2013-03-22 05:22:00,
2013-03-22 01:27:00,21.9,15.2,30.06,WNW,290,0.0,0.0,75,0.00,,---,0.00,VWS V14.01,2013-03-22 05:27:00,
2013-03-22 01:30:00,21.7,15.3,30.05,WNW,290,0.0,0.0,76,0.00,,---,0.00,VWS V15.00,2013-03-22 05:30:00,
2013-03-22 01:32:00,21.7,15.6,30.05,WNW,291,0.0,0.0,77,0.00,,---,0.00,VWS V14.01,2013-03-22 05:32:00,
2013-03-22 01:37:00,21.8,15.7,30.05,WSW,249,0.0,0.0,77,0.00,,---,0.00,VWS V14.01,2013-03-22 05:37:00,
2013-03-22 01:42:00,22.1,16.0,30.05,WSW,240,0.0,0.0,77,0.00,,---,0.00,VWS V14.01,2013-03-22 05:42:00,
2013-03-22 01:47:00,22.4,16.0,30.05,SSW,194,0.0,0.0,76,0.00,,---,0.00,VWS V14.01,2013-03-22 05:47:00,
2013-03-22 01:52:00,22.6,15.6,30.05,SE,127,0.0,1.0,74,0.00,,---,0.00,VWS V14.01,2013-03-22 05:52:00,
2013-03-22 01:57:00,22.9,15.6,30.05,SE,127,0.0,1.0,73,0.00,,---,0.00,VWS V14.01,2013-03-22 05:57:00,
2013-03-22 02:00:00,22.9,15.6,30.05,SE,127,0.0,1.0,73,0.00,,---,0.00,VWS V15.00,2013-03-22 06:00:00,
2013-03-22 02:02:00,23.0,15.6,30.05,SE,127,0.0,0.0,73,0.00,,---,0.00,VWS V14.01,2013-03-22 06:02:00,
2013-03-22 02:07:00,23.1,15.8,30.05,SE,127,0.0,0.0,73,0.00,,---,0.00,VWS V14.01,2013-03-22 06:07:00,
2013-03-22 02:12:00,23.3,15.3,30.05,SE,127,0.0,0.0,71,0.00,,---,0.00,VWS V14.01,2013-03-22 06:12:00,
2013-03-22 02:17:00,23.4,15.1,30.05,SE,127,0.0,0.0,70,0.00,,---,0.00,VWS V14.01,2013-03-22 06:17:00,
2013-03-22 02:22:00,23.3,15.3,30.05,SE,127,0.0,0.0,71,0.00,,---,0.00,VWS V14.01,2013-03-22 06:22:00,
2013-03-22 02:27:00,23.1,15.4,30.05,SE,127,0.0,1.0,72,0.00,,---,0.00,VWS V14.01,2013-03-22 06:27:00,
2013-03-22 02:30:00,22.8,15.5,30.05,SE,127,0.0,1.0,73,0.00,,---,0.00,VWS V15.00,2013-03-22 06:30:00,
2013-03-22 02:32:00,22.8,15.8,30.05,SE,127,0.0,0.0,74,0.00,,---,0.00,VWS V14.01,2013-03-22 06:32:00,
2013-03-22 02:37:00,22.5,15.8,30.05,SE,127,0.0,0.0,75,0.00,,---,0.00,VWS V14.01,2013-03-22 06:37:00,
2013-03-22 02:43:00,22.0,15.3,30.05,SE,127,0.0,0.0,75,0.00,,---,0.00,VWS V14.01,2013-03-22 06:43:00,
2013-03-22 02:48:00,21.7,15.3,30.05,SE,127,0.0,0.0,76,0.00,,---,0.00,VWS V14.01,2013-03-22 06:48:00,
2013-03-22 02:53:00,22.0,15.6,30.05,SE,127,0.0,0.0,76,0.00,,---,0.00,VWS V14.01,2013-03-22 06:53:00,
2013-03-22 02:58:00,22.2,15.5,30.05,SE,127,0.0,0.0,75,0.00,,---,0.00,VWS V14.01,2013-03-22 06:58:00,
2013-03-22 03:00:00,22.2,15.2,30.05,SE,127,0.0,0.0,74,0.00,,---,0.00,VWS V15.00,2013-03-22 07:00:00,
2013-03-22 03:03:00,22.2,15.2,30.05,SE,127,0.0,0.0,74,0.00,,---,0.00,VWS V14.01,2013-03-22 07:03:00,
2013-03-22 03:08:00,22.3,15.0,30.05,SE,127,0.0,0.0,73,0.00,,---,0.00,VWS V14.01,2013-03-22 07:08:00,
2013-03-22 03:13:00,22.6,14.9,30.05,SE,127,0.0,0.0,72,0.00,,---,0.00,VWS V14.01,2013-03-22 07:13:00,
2013-03-22 03:18:00,22.7,15.1,30.05,SE,127,0.0,0.0,72,0.00,,---,0.00,VWS V14.01,2013-03-22 07:18:00,
2013-03-22 03:23:00,22.6,14.9,30.05,SE,127,0.0,0.0,72,0.00,,---,0.00,VWS V14.01,2013-03-22 07:23:00,
2013-03-22 03:28:00,22.3,14.7,30.05,SE,127,0.0,0.0,72,0.00,,---,0.00,VWS V14.01,2013-03-22 07:28:00,
2013-03-22 03:30:00,22.1,14.5,30.05,SE,127,0.0,0.0,72,0.00,,---,0.00,VWS V15.00,2013-03-22 07:30:00,
2013-03-22 03:33:00,22.0,14.4,30.05,SE,127,0.0,0.0,72,0.00,,---,0.00,VWS V14.01,2013-03-22 07:33:00,
2013-03-22 03:38:00,21.9,14.6,30.05,SE,127,0.0,0.0,73,0.00,,---,0.00,VWS V14.01,2013-03-22 07:38:00,
2013-03-22 03:43:00,22.0,14.7,30.05,SE,127,0.0,0.0,73,0.00,,---,0.00,VWS V14.01,2013-03-22 07:43:00,
2013-03-22 03:48:00,22.5,14.9,30.05,SE,127,0.0,0.0,72,0.00,,---,0.00,VWS V14.01,2013-03-22 07:48:00,
2013-03-22 03:53:00,22.4,15.1,30.05,SE,127,0.0,0.0,73,0.00,,---,0.00,VWS V14.01,2013-03-22 07:53:00,
2013-03-22 03:58:00,22.2,15.2,30.05,SE,127,0.0,0.0,74,0.00,,---,0.00,VWS V14.01,2013-03-22 07:58:00,
2013-03-22 04:00:00,22.0,15.0,30.05,SE,127,0.0,0.0,74,0.00,,---,0.00,VWS V15.00,2013-03-22 08:00:00,
2013-03-22 04:03:00,22.0,14.7,30.05,SE,127,0.0,0.0,73,0.00,,---,0.00,VWS V14.01,2013-03-22 08:03:00,
2013-03-22 04:08:00,21.6,14.6,30.05,SE,127,0.0,0.0,74,0.00,,---,0.00,VWS V14.01,2013-03-22 08:08:00,
2013-03-22 04:13:00,21.2,14.5,30.05,SE,127,0.0,0.0,75,0.00,,---,0.00,VWS V14.01,2013-03-22 08:13:00,
2013-03-22 04:18:00,20.9,14.8,30.05,SE,127,0.0,0.0,77,0.00,,---,0.00,VWS V14.01,2013-03-22 08:18:00,
2013-03-22 04:23:00,20.7,14.9,30.05,SE,127,0.0,0.0,78,0.00,,---,0.00,VWS V14.01,2013-03-22 08:23:00,
2013-03-22 04:28:00,20.7,15.5,30.05,SE,127,0.0,0.0,80,0.00,,---,0.00,VWS V14.01,2013-03-22 08:28:00,
2013-03-22 04:30:00,20.6,15.4,30.05,SE,127,0.0,0.0,80,0.00,,---,0.00,VWS V15.00,2013-03-22 08:30:00,
2013-03-22 04:33:00,20.5,15.3,30.05,SE,127,0.0,0.0,80,0.00,,---,0.00,VWS V14.01,2013-03-22 08:33:00,
2013-03-22 04:38:00,20.4,15.2,30.05,SE,127,0.0,0.0,80,0.00,,---,0.00,VWS V14.01,2013-03-22 08:38:00,
2013-03-22 04:43:00,20.2,15.3,30.05,SE,127,0.0,0.0,81,0.00,,---,0.00,VWS V14.01,2013-03-22 08:43:00,
2013-03-22 04:48:00,19.9,15.0,30.05,SE,127,0.0,0.0,81,0.00,,---,0.00,VWS V14.01,2013-03-22 08:48:00,
2013-03-22 04:53:00,19.6,14.7,30.05,SE,127,0.0,0.0,81,0.00,,---,0.00,VWS V14.01,2013-03-22 08:53:00,
2013-03-22 04:58:00,19.8,15.5,30.05,SE,127,0.0,0.0,83,0.00,,---,0.00,VWS V14.01,2013-03-22 08:58:00,
2013-03-22 05:00:00,19.7,15.1,30.05,SE,127,0.0,0.0,82,0.00,,---,0.00,VWS V15.00,2013-03-22 09:00:00,
2013-03-22 05:03:00,19.7,15.1,30.05,SE,127,0.0,0.0,82,0.00,,---,0.00,VWS V14.01,2013-03-22 09:03:00,
2013-03-22 05:08:00,20.5,16.4,30.05,SE,127,0.0,0.0,84,0.00,,---,0.00,VWS V14.01,2013-03-22 09:08:00,
2013-03-22 05:13:00,21.1,16.5,30.05,SE,127,0.0,0.0,82,0.00,,---,0.00,VWS V14.01,2013-03-22 09:13:00,
2013-03-22 05:18:00,21.2,16.6,30.05,SE,127,0.0,0.0,82,0.00,,---,0.00,VWS V14.01,2013-03-22 09:18:00,
2013-03-22 05:23:00,21.2,16.3,30.05,SE,127,0.0,0.0,81,0.00,,---,0.00,VWS V14.01,2013-03-22 09:23:00,
2013-03-22 05:28:00,20.8,15.9,30.05,SE,127,0.0,0.0,81,0.00,,---,0.00,VWS V14.01,2013-03-22 09:28:00,
2013-03-22 05:30:00,20.6,15.7,30.06,SE,127,0.0,0.0,81,0.00,,---,0.00,VWS V15.00,2013-03-22 09:30:00,
2013-03-22 05:33:00,20.4,15.8,30.06,SE,127,0.0,0.0,82,0.00,,---,0.00,VWS V14.01,2013-03-22 09:33:00,
2013-03-22 05:38:00,20.2,15.6,30.06,SE,127,0.0,0.0,82,0.00,,---,0.00,VWS V14.01,2013-03-22 09:38:00,
2013-03-22 05:43:00,20.4,16.1,30.06,SE,127,0.0,0.0,83,0.00,,---,0.00,VWS V14.01,2013-03-22 09:43:00,
2013-03-22 05:48:00,20.2,15.9,30.06,SE,127,0.0,0.0,83,0.00,,---,0.00,VWS V14.01,2013-03-22 09:48:00,
2013-03-22 05:53:00,20.2,16.1,30.06,SE,127,0.0,0.0,84,0.00,,---,0.00,VWS V14.01,2013-03-22 09:53:00,
2013-03-22 05:58:00,20.0,15.7,30.06,SE,127,0.0,0.0,83,0.00,,---,0.00,VWS V14.01,2013-03-22 09:58:00,
2013-03-22 06:00:00,19.9,15.6,30.06,SE,127,0.0,0.0,83,0.00,,---,0.00,VWS V15.00,2013-03-22 10:00:00,
2013-03-22 06:03:00,19.8,15.5,30.06,SE,127,0.0,0.0,83,0.00,,---,0.00,VWS V14.01,2013-03-22 10:03:00,
2013-03-22 06:08:00,19.4,15.1,30.06,SE,127,0.0,0.0,83,0.00,,---,0.00,VWS V14.01,2013-03-22 10:08:00,
2013-03-22 06:13:00,19.1,15.1,30.06,SE,127,0.0,0.0,84,0.00,,---,0.00,VWS V14.01,2013-03-22 10:13:00,
2013-03-22 06:18:00,19.2,15.4,30.06,SE,127,0.0,0.0,85,0.00,,---,0.00,VWS V14.01,2013-03-22 10:18:00,
2013-03-22 06:23:00,19.3,15.5,30.06,SE,127,0.0,0.0,85,0.00,,---,0.00,VWS V14.01,2013-03-22 10:23:00,
2013-03-22 06:28:00,19.5,15.7,30.06,SE,127,0.0,0.0,85,0.00,,---,0.00,VWS V14.01,2013-03-22 10:28:00,
2013-03-22 06:30:00,19.6,15.6,30.07,SE,127,0.0,0.0,84,0.00,,---,0.00,VWS V15.00,2013-03-22 10:30:00,
2013-03-22 06:33:00,19.5,15.5,30.07,SE,127,0.0,0.0,84,0.00,,---,0.00,VWS V14.01,2013-03-22 10:33:00,
2013-03-22 06:38:00,19.4,15.4,30.07,SE,127,0.0,0.0,84,0.00,,---,0.00,VWS V14.01,2013-03-22 10:38:00,
2013-03-22 06:43:00,19.3,15.3,30.07,SE,127,0.0,0.0,84,0.00,,---,0.00,VWS V14.01,2013-03-22 10:43:00,
2013-03-22 06:48:00,19.1,15.1,30.07,SE,127,0.0,0.0,84,0.00,,---,0.00,VWS V14.01,2013-03-22 10:48:00,
2013-03-22 06:53:00,19.3,15.5,30.07,SE,127,0.0,0.0,85,0.00,,---,0.00,VWS V14.01,2013-03-22 10:53:00,
2013-03-22 06:58:00,19.1,15.1,30.07,SE,127,0.0,0.0,84,0.00,,---,0.00,VWS V14.01,2013-03-22 10:58:00,
2013-03-22 07:00:00,19.0,15.2,30.08,SE,127,0.0,0.0,85,0.00,,---,0.00,VWS V15.00,2013-03-22 11:00:00,
2013-03-22 07:03:00,18.9,15.1,30.08,SE,127,0.0,0.0,85,0.00,,---,0.00,VWS V14.01,2013-03-22 11:03:00,
2013-03-22 07:08:00,18.8,15.1,30.08,SE,127,0.0,0.0,85,0.00,,---,0.00,VWS V14.01,2013-03-22 11:08:00,
2013-03-22 07:13:00,18.6,15.1,30.08,SE,127,0.0,0.0,86,0.00,,---,0.00,VWS V14.01,2013-03-22 11:13:00,
2013-03-22 07:18:00,18.6,15.1,30.08,SE,127,0.0,0.0,86,0.00,,---,0.00,VWS V14.01,2013-03-22 11:18:00,
2013-03-22 07:23:00,18.9,15.7,30.08,SE,127,0.0,0.0,87,0.00,,---,0.00,VWS V14.01,2013-03-22 11:23:00,
2013-03-22 07:28:00,19.2,15.7,30.08,SE,127,0.0,0.0,86,0.00,,---,0.00,VWS V14.01,2013-03-22 11:28:00,
2013-03-22 07:30:00,19.5,16.0,30.08,SE,127,0.0,0.0,86,0.00,,---,0.00,VWS V15.00,2013-03-22 11:30:00,
2013-03-22 07:33:00,19.7,16.2,30.08,SE,127,0.0,0.0,86,0.00,,---,0.00,VWS V14.01,2013-03-22 11:33:00,
2013-03-22 07:38:00,20.2,16.4,30.08,SE,127,0.0,0.0,85,0.00,,---,0.00,VWS V14.01,2013-03-22 11:38:00,
2013-03-22 07:43:00,20.4,16.4,30.08,SE,127,0.0,0.0,84,0.00,,---,0.00,VWS V14.01,2013-03-22 11:43:00,
2013-03-22 07:48:00,20.4,16.4,30.08,SE,127,0.0,0.0,84,0.00,,---,0.00,VWS V14.01,2013-03-22 11:48:00,
2013-03-22 07:53:00,20.1,15.8,30.09,SE,127,0.0,0.0,83,0.00,,---,0.00,VWS V14.01,2013-03-22 11:53:00,
2013-03-22 07:58:00,20.1,16.0,30.09,SE,127,0.0,0.0,84,0.00,,---,0.00,VWS V14.01,2013-03-22 11:58:00,
2013-03-22 08:00:00,20.3,16.2,30.09,SE,127,0.0,0.0,84,0.00,,---,0.00,VWS V15.00,2013-03-22 12:00:00,
2013-03-22 08:03:00,20.5,16.2,30.09,SE,127,0.0,0.0,83,0.00,,---,0.00,VWS V14.01,2013-03-22 12:03:00,
2013-03-22 08:08:00,20.9,16.6,30.09,SE,127,0.0,0.0,83,0.00,,---,0.00,VWS V14.01,2013-03-22 12:08:00,
2013-03-22 08:13:00,21.4,16.8,30.09,SE,127,0.0,0.0,82,0.00,,---,0.00,VWS V14.01,2013-03-22 12:13:00,
2013-03-22 08:18:00,22.0,17.4,30.09,SE,127,0.0,0.0,82,0.00,,---,0.00,VWS V14.01,2013-03-22 12:18:00,
2013-03-22 08:23:00,22.6,17.7,30.09,SE,127,0.0,0.0,81,0.00,,---,0.00,VWS V14.01,2013-03-22 12:23:00,
2013-03-22 08:28:00,23.3,17.8,30.09,SE,127,0.0,0.0,79,0.00,,---,0.00,VWS V14.01,2013-03-22 12:28:00,
2013-03-22 08:30:00,23.6,17.5,30.10,ESE,109,0.0,0.0,77,0.00,,---,0.00,VWS V15.00,2013-03-22 12:30:00,
2013-03-22 08:33:00,23.7,17.3,30.10,NNE,29,0.0,0.0,76,0.00,,---,0.00,VWS V14.01,2013-03-22 12:33:00,
2013-03-22 08:38:00,24.1,16.7,30.10,NW,326,2.0,2.0,73,0.00,,---,0.00,VWS V14.01,2013-03-22 12:38:00,
2013-03-22 08:43:00,24.7,16.6,30.10,WNW,297,0.0,2.0,71,0.00,,---,0.00,VWS V14.01,2013-03-22 12:43:00,
2013-03-22 08:48:00,25.2,16.8,30.10,WSW,253,0.0,2.0,70,0.00,,---,0.00,VWS V14.01,2013-03-22 12:48:00,
2013-03-22 08:53:00,25.5,17.1,30.11,WSW,257,0.0,2.0,70,0.00,,---,0.00,VWS V14.01,2013-03-22 12:53:00,
2013-03-22 08:58:00,26.1,17.7,30.10,West,270,0.0,2.0,70,0.00,,---,0.00,VWS V14.01,2013-03-22 12:58:00,
2013-03-22 09:00:00,26.4,17.3,30.10,WNW,285,0.0,2.0,68,0.00,,---,0.00,VWS V15.00,2013-03-22 13:00:00,
2013-03-22 09:03:00,26.6,17.8,30.10,WNW,287,0.0,0.0,69,0.00,,---,0.00,VWS V14.01,2013-03-22 13:03:00,
2013-03-22 09:08:00,27.0,17.9,30.10,WNW,284,0.0,0.0,68,0.00,,---,0.00,VWS V14.01,2013-03-22 13:08:00,
2013-03-22 09:13:00,27.2,17.4,30.10,WNW,283,1.0,1.0,66,0.00,,---,0.00,VWS V14.01,2013-03-22 13:13:00,
2013-03-22 09:18:00,27.6,18.1,30.10,West,281,1.0,1.0,67,0.00,,---,0.00,VWS V14.01,2013-03-22 13:18:00,
2013-03-22 09:23:00,27.8,17.9,30.10,WNW,296,0.0,2.0,66,0.00,,---,0.00,VWS V14.01,2013-03-22 13:23:00,
2013-03-22 09:28:00,28.6,18.3,30.10,NNE,12,1.0,2.0,65,0.00,,---,0.00,VWS V14.01,2013-03-22 13:28:00,
2013-03-22 09:30:00,28.8,18.5,30.10,NW,313,1.0,2.0,65,0.00,,---,0.00,VWS V15.00,2013-03-22 13:30:00,
2013-03-22 09:33:00,28.9,18.3,30.10,WNW,286,1.0,1.0,64,0.00,,---,0.00,VWS V14.01,2013-03-22 13:33:00,
2013-03-22 09:38:00,28.9,17.2,30.10,West,269,1.0,2.0,61,0.00,,---,0.00,VWS V14.01,2013-03-22 13:38:00,
2013-03-22 09:43:00,29.1,17.3,30.10,WNW,284,1.0,2.0,61,0.00,,---,0.00,VWS V14.01,2013-03-22 13:43:00,
2013-03-22 09:48:00,29.5,17.7,30.10,WNW,293,1.0,3.0,61,0.00,,---,0.00,VWS V14.01,2013-03-22 13:48:00,
2013-03-22 09:53:00,29.8,17.2,30.10,WNW,302,0.0,3.0,59,0.00,,---,0.00,VWS V14.01,2013-03-22 13:53:00,
2013-03-22 09:58:00,30.1,17.5,30.10,West,267,0.0,3.0,59,0.00,,---,0.00,VWS V14.01,2013-03-22 13:58:00,
2013-03-22 10:00:00,30.3,17.7,30.10,West,265,2.0,3.0,59,0.00,,---,0.00,VWS V15.00,2013-03-22 14:00:00,
2013-03-22 10:03:00,30.3,17.7,30.10,WNW,297,1.0,2.0,59,0.00,,---,0.00,VWS V14.01,2013-03-22 14:03:00,
2013-03-22 10:08:00,31.2,18.5,30.10,West,266,1.0,3.0,59,0.00,,---,0.00,VWS V14.01,2013-03-22 14:08:00,
2013-03-22 10:13:00,31.3,18.2,30.10,WNW,284,1.0,3.0,58,0.00,,---,0.00,VWS V14.01,2013-03-22 14:13:00,
2013-03-22 10:18:00,31.8,19.5,30.10,West,278,2.0,4.0,60,0.00,,---,0.00,VWS V14.01,2013-03-22 14:18:00,
2013-03-22 10:23:00,32.1,19.4,30.10,West,269,3.0,4.0,59,0.00,,---,0.00,VWS V14.01,2013-03-22 14:23:00,
2013-03-22 10:28:00,32.6,19.1,30.10,West,277,1.0,4.0,57,0.00,,---,0.00,VWS V14.01,2013-03-22 14:28:00,
2013-03-22 10:30:00,32.8,18.8,30.10,West,276,1.0,4.0,56,0.00,,---,0.00,VWS V15.00,2013-03-22 14:30:00,
2013-03-22 10:33:00,32.7,18.3,30.10,SSW,201,2.0,4.0,55,0.00,,---,0.00,VWS V14.01,2013-03-22 14:33:00,
2013-03-22 10:38:00,32.9,18.9,30.10,NW,317,2.0,4.0,56,0.00,,---,0.00,VWS V14.01,2013-03-22 14:38:00,
2013-03-22 10:43:00,32.8,18.0,30.10,WSW,257,2.0,4.0,54,0.00,,---,0.00,VWS V14.01,2013-03-22 14:43:00,
2013-03-22 10:48:00,33.1,18.7,30.10,West,267,1.0,4.0,55,0.00,,---,0.00,VWS V14.01,2013-03-22 14:48:00,
2013-03-22 10:53:00,33.1,17.8,30.10,NW,315,2.0,4.0,53,0.00,,---,0.00,VWS V14.01,2013-03-22 14:53:00,
2013-03-22 10:58:00,33.4,18.6,30.10,West,277,2.0,5.0,54,0.00,,---,0.00,VWS V14.01,2013-03-22 14:58:00,
2013-03-22 11:00:00,33.7,18.0,30.10,WNW,295,2.0,5.0,52,0.00,,---,0.00,VWS V15.00,2013-03-22 15:00:00,
2013-03-22 11:03:00,33.7,18.4,30.10,West,274,2.0,3.0,53,0.00,,---,0.00,VWS V14.01,2013-03-22 15:03:00,
2013-03-22 11:08:00,33.6,17.0,30.10,WNW,302,4.0,5.0,50,0.00,,---,0.00,VWS V14.01,2013-03-22 15:08:00,
2013-03-22 11:13:00,33.7,17.5,30.10,SE,134,3.0,5.0,51,0.00,,---,0.00,VWS V14.01,2013-03-22 15:13:00,
2013-03-22 11:18:00,33.6,17.0,30.10,West,278,3.0,8.0,50,0.00,,---,0.00,VWS V14.01,2013-03-22 15:18:00,
2013-03-22 11:23:00,33.7,17.5,30.10,West,273,3.0,8.0,51,0.00,,---,0.00,VWS V14.01,2013-03-22 15:23:00,
2013-03-22 11:28:00,34.1,17.9,30.10,WNW,302,1.0,8.0,51,0.00,,---,0.00,VWS V14.01,2013-03-22 15:28:00,
2013-03-22 11:30:00,34.4,17.7,30.10,West,277,4.0,8.0,50,0.00,,---,0.00,VWS V15.00,2013-03-22 15:30:00,
2013-03-22 11:33:00,34.5,18.2,30.10,WNW,297,2.0,4.0,51,0.00,,---,0.00,VWS V14.01,2013-03-22 15:33:00,
2013-03-22 11:38:00,34.8,18.5,30.10,WNW,286,3.0,6.0,51,0.00,,---,0.00,VWS V14.01,2013-03-22 15:38:00,
2013-03-22 11:43:00,35.3,18.1,30.10,WNW,301,1.0,6.0,49,0.00,,---,0.00,VWS V14.01,2013-03-22 15:43:00,
2013-03-22 11:48:00,36.0,19.6,30.10,SE,136,1.0,6.0,51,0.00,,---,0.00,VWS V14.01,2013-03-22 15:48:00,
2013-03-22 11:53:00,35.7,17.5,30.10,NNE,27,5.0,7.0,47,0.00,,---,0.00,VWS V14.01,2013-03-22 15:53:00,
2013-03-22 11:58:00,35.7,18.4,30.10,West,277,3.0,7.0,49,0.00,,---,0.00,VWS V14.01,2013-03-22 15:58:00,
2013-03-22 12:00:00,35.7,18.4,30.10,SSE,152,1.0,7.0,49,0.00,,---,0.00,VWS V15.00,2013-03-22 16:00:00,
2013-03-22 12:03:00,35.9,18.1,30.10,SE,146,1.0,2.0,48,0.00,,---,0.00,VWS V14.01,2013-03-22 16:03:00,
2013-03-22 12:08:00,36.4,19.1,30.10,West,281,3.0,4.0,49,0.00,,---,0.00,VWS V14.01,2013-03-22 16:08:00,
2013-03-22 12:13:00,36.0,18.2,30.10,SW,219,2.0,5.0,48,0.00,,---,0.00,VWS V14.01,2013-03-22 16:13:00,
2013-03-22 12:18:00,36.0,17.7,30.10,WNW,301,2.0,5.0,47,0.00,,---,0.00,VWS V14.01,2013-03-22 16:18:00,
2013-03-22 12:23:00,36.1,18.3,30.10,ESE,115,1.0,5.0,48,0.00,,---,0.00,VWS V14.01,2013-03-22 16:23:00,
2013-03-22 12:28:00,36.6,18.3,30.10,WNW,293,3.0,6.0,47,0.00,,---,0.00,VWS V14.01,2013-03-22 16:28:00,
2013-03-22 12:30:00,36.4,17.6,30.09,WNW,283,0.0,6.0,46,0.00,,---,0.00,VWS V15.00,2013-03-22 16:30:00,
2013-03-22 12:33:00,36.4,18.1,30.09,West,264,1.0,4.0,47,0.00,,---,0.00,VWS V14.01,2013-03-22 16:33:00,
2013-03-22 12:38:00,36.7,17.9,30.09,West,273,2.0,7.0,46,0.00,,---,0.00,VWS V14.01,2013-03-22 16:38:00,
2013-03-22 12:43:00,36.8,18.0,30.09,West,262,2.0,7.0,46,0.00,,---,0.00,VWS V14.01,2013-03-22 16:43:00,
2013-03-22 12:48:00,37.2,18.3,30.09,NNE,20,4.0,7.0,46,0.00,,---,0.00,VWS V14.01,2013-03-22 16:48:00,
2013-03-22 12:53:00,37.7,18.8,30.09,NW,309,0.0,7.0,46,0.00,,---,0.00,VWS V14.01,2013-03-22 16:53:00,
2013-03-22 12:58:00,37.9,19.0,30.08,West,264,1.0,7.0,46,0.00,,---,0.00,VWS V14.01,2013-03-22 16:58:00,
2013-03-22 13:00:00,38.6,19.1,30.08,South,172,1.0,7.0,45,0.00,,---,0.00,VWS V15.00,2013-03-22 17:00:00,
2013-03-22 13:03:00,38.9,18.9,30.08,West,280,2.0,4.0,44,0.00,,---,0.00,VWS V14.01,2013-03-22 17:03:00,
2013-03-22 13:08:00,39.2,19.7,30.08,NW,304,1.0,5.0,45,0.00,,---,0.00,VWS V14.01,2013-03-22 17:08:00,
2013-03-22 13:13:00,39.3,19.2,30.08,North,349,3.0,5.0,44,0.00,,---,0.00,VWS V14.01,2013-03-22 17:13:00,
2013-03-22 13:18:00,38.9,18.3,30.08,NW,308,0.0,5.0,43,0.00,,---,0.00,VWS V14.01,2013-03-22 17:18:00,
2013-03-22 13:23:00,39.2,19.7,30.08,SE,146,3.0,7.0,45,0.00,,---,0.00,VWS V14.01,2013-03-22 17:23:00,
2013-03-22 13:28:00,40.6,20.9,30.07,SE,143,1.0,7.0,45,0.00,,---,0.00,VWS V14.01,2013-03-22 17:28:00,
2013-03-22 13:30:00,41.0,20.2,30.08,SSW,195,5.0,7.0,43,0.00,,---,0.00,VWS V15.00,2013-03-22 17:30:00,
2013-03-22 13:33:00,40.9,20.1,30.07,WNW,285,1.0,7.0,43,0.00,,---,0.00,VWS V14.01,2013-03-22 17:33:00,
2013-03-22 13:38:00,39.7,17.4,30.08,WNW,290,1.0,7.0,40,0.00,,---,0.00,VWS V14.01,2013-03-22 17:38:00,
2013-03-22 13:43:00,40.2,19.5,30.07,SSW,210,4.0,7.0,43,0.00,,---,0.00,VWS V14.01,2013-03-22 17:43:00,
2013-03-22 13:48:00,41.0,20.2,30.07,ESE,118,0.0,7.0,43,0.00,,---,0.00,VWS V14.01,2013-03-22 17:48:00,
2013-03-22 13:53:00,42.1,19.5,30.07,West,266,0.0,7.0,40,0.00,,---,0.00,VWS V14.01,2013-03-22 17:53:00,
2013-03-22 13:58:00,40.9,17.3,30.07,WNW,294,2.0,7.0,38,0.00,,---,0.00,VWS V14.01,2013-03-22 17:58:00,
2013-03-22 14:00:00,40.3,17.9,30.06,NW,309,2.0,7.0,40,0.00,,---,0.00,VWS V15.00,2013-03-22 18:00:00,
2013-03-22 14:03:00,40.1,17.1,30.07,NNW,329,1.0,6.0,39,0.00,,---,0.00,VWS V14.01,2013-03-22 18:03:00,
2013-03-22 14:08:00,41.1,18.6,30.06,WNW,294,6.0,6.0,40,0.00,,---,0.00,VWS V14.01,2013-03-22 18:08:00,
2013-03-22 14:13:00,40.6,17.0,30.06,NW,321,2.0,6.0,38,0.00,,---,0.00,VWS V14.01,2013-03-22 18:13:00,
2013-03-22 14:18:00,40.9,18.5,30.06,NW,307,5.0,6.0,40,0.00,,---,0.00,VWS V14.01,2013-03-22 18:18:00,
2013-03-22 14:23:00,40.9,19.0,30.05,NW,305,2.0,6.0,41,0.00,,---,0.00,VWS V14.01,2013-03-22 18:23:00,
2013-03-22 14:28:00,41.4,18.9,30.05,WSW,249,3.0,6.0,40,0.00,,---,0.00,VWS V14.01,2013-03-22 18:28:00,
2013-03-22 14:30:00,41.6,19.1,30.05,West,260,2.0,6.0,40,0.00,,---,0.00,VWS V15.00,2013-03-22 18:30:00,
2013-03-22 14:33:00,41.8,19.3,30.05,WNW,291,2.0,4.0,40,0.00,,---,0.00,VWS V14.01,2013-03-22 18:33:00,
2013-03-22 14:38:00,41.9,18.2,30.05,West,280,3.0,5.0,38,0.00,,---,0.00,VWS V14.01,2013-03-22 18:38:00,
2013-03-22 14:43:00,41.6,17.9,30.04,West,262,3.0,6.0,38,0.00,,---,0.00,VWS V14.01,2013-03-22 18:43:00,
2013-03-22 14:48:00,41.7,19.2,30.04,West,266,7.0,9.0,40,0.00,,---,0.00,VWS V14.01,2013-03-22 18:48:00,
2013-03-22 14:53:00,41.7,18.6,30.04,NNW,329,1.0,9.0,39,0.00,,---,0.00,VWS V14.01,2013-03-22 18:53:00,
2013-03-22 14:58:00,42.8,19.6,30.04,SSW,212,0.0,9.0,39,0.00,,---,0.00,VWS V14.01,2013-03-22 18:58:00,
2013-03-22 15:00:00,43.0,19.8,30.04,SSE,149,2.0,9.0,39,0.00,,---,0.00,VWS V15.00,2013-03-22 19:00:00,
2013-03-22 15:03:00,43.0,18.5,30.04,WNW,293,2.0,4.0,37,0.00,,---,0.00,VWS V14.01,2013-03-22 19:03:00,
2013-03-22 15:08:00,42.4,17.4,30.04,NNW,328,1.0,5.0,36,0.00,,---,0.00,VWS V14.01,2013-03-22 19:08:00,
2013-03-22 15:13:00,42.4,19.2,30.03,WNW,283,0.0,5.0,39,0.00,,---,0.00,VWS V14.01,2013-03-22 19:13:00,
2013-03-22 15:18:00,43.0,19.1,30.03,West,268,3.0,9.0,38,0.00,,---,0.00,VWS V14.01,2013-03-22 19:18:00,
2013-03-22 15:23:00,42.9,18.4,30.03,SSW,205,4.0,9.0,37,0.00,,---,0.00,VWS V14.01,2013-03-22 19:23:00,
2013-03-22 15:28:00,43.6,19.7,30.03,NW,323,2.0,9.0,38,0.00,,---,0.00,VWS V14.01,2013-03-22 19:28:00,
2013-03-22 15:30:00,43.3,18.8,30.03,NW,326,3.0,9.0,37,0.00,,---,0.00,VWS V15.00,2013-03-22 19:30:00,
2013-03-22 15:33:00,43.2,18.7,30.03,NNW,340,3.0,4.0,37,0.00,,---,0.00,VWS V14.01,2013-03-22 19:33:00,
2013-03-22 15:38:00,43.5,20.2,30.03,West,268,6.0,7.0,39,0.00,,---,0.00,VWS V14.01,2013-03-22 19:38:00,
2013-03-22 15:43:00,43.4,18.2,30.03,ESE,118,3.0,8.0,36,0.00,,---,0.00,VWS V14.01,2013-03-22 19:43:00,
2013-03-22 15:48:00,43.6,19.7,30.02,West,264,5.0,8.0,38,0.00,,---,0.00,VWS V14.01,2013-03-22 19:48:00,
2013-03-22 15:53:00,43.0,17.9,30.02,WSW,255,2.0,8.0,36,0.00,,---,0.00,VWS V14.01,2013-03-22 19:53:00,
2013-03-22 15:58:00,42.9,18.4,30.02,NW,305,3.0,8.0,37,0.00,,---,0.00,VWS V14.01,2013-03-22 19:58:00,
2013-03-22 16:00:00,43.2,20.5,30.02,NW,316,1.0,8.0,40,0.00,,---,0.00,VWS V15.00,2013-03-22 20:00:00,
2013-03-22 16:03:00,43.3,18.8,30.02,NW,326,1.0,4.0,37,0.00,,---,0.00,VWS V14.01,2013-03-22 20:03:00,
2013-03-22 16:08:00,42.7,17.6,30.02,NNE,20,0.0,6.0,36,0.00,,---,0.00,VWS V14.01,2013-03-22 20:08:00,
2013-03-22 16:13:00,42.8,18.4,30.02,SW,220,1.0,6.0,37,0.00,,---,0.00,VWS V14.01,2013-03-22 20:13:00,
2013-03-22 16:18:00,43.3,18.8,30.01,ENE,60,0.0,6.0,37,0.00,,---,0.00,VWS V14.01,2013-03-22 20:18:00,
2013-03-22 16:23:00,43.6,18.4,30.01,NNE,28,2.0,6.0,36,0.00,,---,0.00,VWS V14.01,2013-03-22 20:23:00,
2013-03-22 16:28:00,43.6,18.4,30.01,NW,314,2.0,6.0,36,0.00,,---,0.00,VWS V14.01,2013-03-22 20:28:00,
2013-03-22 16:30:00,43.5,17.7,30.01,SSW,200,4.0,6.0,35,0.00,,---,0.00,VWS V15.00,2013-03-22 20:30:00,
2013-03-22 16:33:00,43.4,16.2,30.01,West,262,4.0,5.0,33,0.00,,---,0.00,VWS V14.01,2013-03-22 20:33:00,
2013-03-22 16:38:00,43.3,17.5,30.01,WNW,291,2.0,5.0,35,0.00,,---,0.00,VWS V14.01,2013-03-22 20:38:00,
2013-03-22 16:43:00,43.7,17.9,30.01,SSW,199,1.0,5.0,35,0.00,,---,0.00,VWS V14.01,2013-03-22 20:43:00,
2013-03-22 16:48:00,44.0,16.8,30.01,SSE,168,0.0,5.0,33,0.00,,---,0.00,VWS V14.01,2013-03-22 20:48:00,
2013-03-22 16:53:00,44.1,17.5,30.01,West,262,2.0,5.0,34,0.00,,---,0.00,VWS V14.01,2013-03-22 20:53:00,
2013-03-22 16:58:00,44.0,17.5,30.01,NW,314,3.0,5.0,34,0.00,,---,0.00,VWS V14.01,2013-03-22 20:58:00,
2013-03-22 17:00:00,43.8,17.3,30.01,WNW,297,1.0,5.0,34,0.00,,---,0.00,VWS V15.00,2013-03-22 21:00:00,
2013-03-22 17:03:00,43.8,17.3,30.01,NW,312,4.0,4.0,34,0.00,,---,0.00,VWS V14.01,2013-03-22 21:03:00,
2013-03-22 17:08:00,44.1,18.9,30.01,WSW,240,2.0,4.0,36,0.00,,---,0.00,VWS V14.01,2013-03-22 21:08:00,
2013-03-22 17:13:00,44.3,17.7,30.01,WNW,297,0.0,6.0,34,0.00,,---,0.00,VWS V14.01,2013-03-22 21:13:00,
2013-03-22 17:18:00,44.0,16.8,30.01,West,267,2.0,7.0,33,0.00,,---,0.00,VWS V14.01,2013-03-22 21:18:00,
2013-03-22 17:23:00,43.9,17.4,30.01,WSW,249,0.0,7.0,34,0.00,,---,0.00,VWS V14.01,2013-03-22 21:23:00,
2013-03-22 17:28:00,44.4,18.5,30.01,WNW,283,2.0,7.0,35,0.00,,---,0.00,VWS V14.01,2013-03-22 21:28:00,
2013-03-22 17:30:00,44.9,18.9,30.01,West,260,4.0,7.0,35,0.00,,---,0.00,VWS V15.00,2013-03-22 21:30:00,
2013-03-22 17:33:00,44.7,18.1,30.01,WNW,290,0.0,3.0,34,0.00,,---,0.00,VWS V14.01,2013-03-22 21:33:00,
2013-03-22 17:38:00,45.0,18.3,30.00,West,276,1.0,4.0,34,0.00,,---,0.00,VWS V14.01,2013-03-22 21:38:00,
2013-03-22 17:43:00,45.0,18.3,30.00,WNW,283,7.0,7.0,34,0.00,,---,0.00,VWS V14.01,2013-03-22 21:43:00,
2013-03-22 17:48:00,44.6,18.0,30.01,NNW,328,3.0,7.0,34,0.00,,---,0.00,VWS V14.01,2013-03-22 21:48:00,
2013-03-22 17:53:00,44.6,19.3,30.00,West,278,2.0,7.0,36,0.00,,---,0.00,VWS V14.01,2013-03-22 21:53:00,
2013-03-22 17:58:00,44.4,17.1,30.00,West,268,2.0,7.0,33,0.00,,---,0.00,VWS V14.01,2013-03-22 21:58:00,
2013-03-22 18:00:00,44.1,17.5,30.00,WNW,283,1.0,7.0,34,0.00,,---,0.00,VWS V15.00,2013-03-22 22:00:00,
2013-03-22 18:03:00,44.1,17.5,30.00,SSE,151,2.0,2.0,34,0.00,,---,0.00,VWS V14.01,2013-03-22 22:03:00,
2013-03-22 18:08:00,44.4,17.1,30.00,West,279,3.0,4.0,33,0.00,,---,0.00,VWS V14.01,2013-03-22 22:08:00,
2013-03-22 18:13:00,44.4,17.1,30.00,NW,311,1.0,5.0,33,0.00,,---,0.00,VWS V14.01,2013-03-22 22:13:00,
2013-03-22 18:18:00,44.5,17.9,30.00,WNW,290,3.0,5.0,34,0.00,,---,0.00,VWS V14.01,2013-03-22 22:18:00,
2013-03-22 18:23:00,44.3,17.7,30.00,NW,322,2.0,5.0,34,0.00,,---,0.00,VWS V14.01,2013-03-22 22:23:00,
2013-03-22 18:28:00,44.7,18.1,30.00,West,267,2.0,5.0,34,0.00,,---,0.00,VWS V14.01,2013-03-22 22:28:00,
2013-03-22 18:30:00,45.0,18.3,30.01,SW,215,0.0,5.0,34,0.00,,---,0.00,VWS V15.00,2013-03-22 22:30:00,
2013-03-22 18:33:00,45.2,18.5,30.01,West,267,1.0,2.0,34,0.00,,---,0.00,VWS V14.01,2013-03-22 22:33:00,
2013-03-22 18:38:00,45.2,18.5,30.01,West,270,0.0,2.0,34,0.00,,---,0.00,VWS V14.01,2013-03-22 22:38:00,
2013-03-22 18:43:00,45.3,18.6,30.01,WSW,239,2.0,2.0,34,0.00,,---,0.00,VWS V14.01,2013-03-22 22:43:00,
2013-03-22 18:48:00,45.4,18.7,30.01,SW,226,0.0,2.0,34,0.00,,---,0.00,VWS V14.01,2013-03-22 22:48:00,
2013-03-22 18:53:00,45.5,18.1,30.01,NNW,332,3.0,4.0,33,0.00,,---,0.00,VWS V14.01,2013-03-22 22:53:00,
2013-03-22 18:58:00,45.0,18.3,30.01,West,271,1.0,4.0,34,0.00,,---,0.00,VWS V14.01,2013-03-22 22:58:00,
2013-03-22 19:00:00,45.1,18.4,30.01,West,270,0.0,4.0,34,0.00,,---,0.00,VWS V15.00,2013-03-22 23:00:00,
2013-03-22 19:03:00,45.3,18.6,30.01,SSW,205,1.0,2.0,34,0.00,,---,0.00,VWS V14.01,2013-03-22 23:03:00,
2013-03-22 19:08:00,45.1,17.7,30.01,WNW,294,1.0,2.0,33,0.00,,---,0.00,VWS V14.01,2013-03-22 23:08:00,
2013-03-22 19:13:00,45.3,17.9,30.02,WNW,301,0.0,2.0,33,0.00,,---,0.00,VWS V14.01,2013-03-22 23:13:00,
2013-03-22 19:18:00,45.2,18.5,30.02,WNW,301,0.0,2.0,34,0.00,,---,0.00,VWS V14.01,2013-03-22 23:18:00,
2013-03-22 19:23:00,45.3,17.2,30.02,West,269,1.0,2.0,32,0.00,,---,0.00,VWS V14.01,2013-03-22 23:23:00,
2013-03-22 19:28:00,44.8,17.5,30.02,SSW,204,0.0,2.0,33,0.00,,---,0.00,VWS V14.01,2013-03-22 23:28:00,
2013-03-22 19:30:00,44.4,17.8,30.02,WSW,253,0.0,2.0,34,0.00,,---,0.00,VWS V15.00,2013-03-22 23:30:00,
2013-03-22 19:33:00,44.3,17.7,30.02,WSW,253,0.0,0.0,34,0.00,,---,0.00,VWS V14.01,2013-03-22 23:33:00,
2013-03-22 19:38:00,43.7,17.2,30.02,West,273,0.0,0.0,34,0.00,,---,0.00,VWS V14.01,2013-03-22 23:38:00,
2013-03-22 19:43:00,43.3,18.2,30.02,West,273,0.0,0.0,36,0.00,,---,0.00,VWS V14.01,2013-03-22 23:43:00,
2013-03-22 19:48:00,42.8,17.1,30.02,West,273,0.0,0.0,35,0.00,,---,0.00,VWS V14.01,2013-03-22 23:48:00,
2013-03-22 19:53:00,42.2,17.2,30.02,West,263,0.0,0.0,36,0.00,,---,0.00,VWS V14.01,2013-03-22 23:53:00,
2013-03-22 19:58:00,41.7,18.0,30.02,West,263,0.0,0.0,38,0.00,,---,0.00,VWS V14.01,2013-03-22 23:58:00,
2013-03-22 20:00:00,41.3,18.8,30.02,South,190,0.0,0.0,40,0.00,,---,0.00,VWS V15.00,2013-03-23 00:00:00,
2013-03-22 20:03:00,41.2,19.3,30.02,South,190,0.0,0.0,41,0.00,,---,0.00,VWS V14.01,2013-03-23 00:03:00,
2013-03-22 20:08:00,40.7,18.9,30.02,South,190,0.0,0.0,41,0.00,,---,0.00,VWS V14.01,2013-03-23 00:08:00,
2013-03-22 20:13:00,40.2,17.8,30.02,South,190,0.0,0.0,40,0.00,,---,0.00,VWS V14.01,2013-03-23 00:13:00,
2013-03-22 20:18:00,39.7,18.0,30.02,South,190,0.0,0.0,41,0.00,,---,0.00,VWS V14.01,2013-03-23 00:18:00,
2013-03-22 20:23:00,39.5,17.8,30.02,South,191,0.0,0.0,41,0.00,,---,0.00,VWS V14.01,2013-03-23 00:23:00,
2013-03-22 20:28:00,39.2,18.0,30.02,South,191,0.0,0.0,42,0.00,,---,0.00,VWS V14.01,2013-03-23 00:28:00,
2013-03-22 20:30:00,39.1,18.0,30.02,South,191,0.0,0.0,42,0.00,,---,0.00,VWS V15.00,2013-03-23 00:30:00,
2013-03-22 20:33:00,39.2,17.5,30.02,South,190,0.0,0.0,41,0.00,,---,0.00,VWS V14.01,2013-03-23 00:33:00,
2013-03-22 20:38:00,39.1,18.0,30.02,South,190,0.0,0.0,42,0.00,,---,0.00,VWS V14.01,2013-03-23 00:38:00,
2013-03-22 20:43:00,38.6,19.1,30.03,South,191,0.0,0.0,45,0.00,,---,0.00,VWS V14.01,2013-03-23 00:43:00,
2013-03-22 20:48:00,38.0,20.1,30.03,South,190,0.0,0.0,48,0.00,,---,0.00,VWS V14.01,2013-03-23 00:48:00,
2013-03-22 20:53:00,37.2,19.8,30.03,South,191,0.0,0.0,49,0.00,,---,0.00,VWS V14.01,2013-03-23 00:53:00,
2013-03-22 20:58:00,36.8,19.0,30.03,South,190,0.0,0.0,48,0.00,,---,0.00,VWS V14.01,2013-03-23 00:58:00,
2013-03-22 21:00:00,36.6,18.3,30.03,South,190,0.0,0.0,47,0.00,,---,0.00,VWS V15.00,2013-03-23 01:00:00,
2013-03-22 21:03:00,36.5,18.2,30.03,South,191,0.0,0.0,47,0.00,,---,0.00,VWS V14.01,2013-03-23 01:03:00,
2013-03-22 21:08:00,36.1,19.3,30.03,SSW,192,0.0,0.0,50,0.00,,---,0.00,VWS V14.01,2013-03-23 01:08:00,
2013-03-22 21:13:00,35.6,19.7,30.03,South,191,0.0,0.0,52,0.00,,---,0.00,VWS V14.01,2013-03-23 01:13:00,
2013-03-22 21:18:00,35.5,18.7,30.04,South,191,0.0,0.0,50,0.00,,---,0.00,VWS V14.01,2013-03-23 01:18:00,
2013-03-22 21:23:00,35.3,18.5,30.04,South,191,0.0,0.0,50,0.00,,---,0.00,VWS V14.01,2013-03-23 01:23:00,
2013-03-22 21:28:00,35.2,18.0,30.03,SSW,194,0.0,0.0,49,0.00,,---,0.00,VWS V14.01,2013-03-23 01:28:00,
2013-03-22 21:30:00,35.6,17.9,30.03,SSW,193,0.0,0.0,48,0.00,,---,0.00,VWS V15.00,2013-03-23 01:30:00,
2013-03-22 21:33:00,35.8,18.5,30.03,SSW,193,0.0,0.0,49,0.00,,---,0.00,VWS V14.01,2013-03-23 01:33:00,
2013-03-22 21:38:00,36.3,18.0,30.03,East,91,0.0,0.0,47,0.00,,---,0.00,VWS V14.01,2013-03-23 01:38:00,
2013-03-22 21:43:00,36.8,18.5,30.03,ENE,58,0.0,0.0,47,0.00,,---,0.00,VWS V14.01,2013-03-23 01:43:00,
2013-03-22 21:48:00,36.9,18.6,30.03,ENE,58,0.0,0.0,47,0.00,,---,0.00,VWS V14.01,2013-03-23 01:48:00,
2013-03-22 21:53:00,36.4,19.1,30.03,ENE,58,0.0,0.0,49,0.00,,---,0.00,VWS V14.01,2013-03-23 01:53:00,
2013-03-22 21:58:00,35.7,19.8,30.03,ENE,58,0.0,0.0,52,0.00,,---,0.00,VWS V14.01,2013-03-23 01:58:00,
2013-03-22 22:00:00,35.5,19.6,30.03,ENE,58,0.0,0.0,52,0.00,,---,0.00,VWS V15.00,2013-03-23 02:00:00,
2013-03-22 22:03:00,35.3,19.0,30.03,ENE,58,0.0,0.0,51,0.00,,---,0.00,VWS V14.01,2013-03-23 02:03:00,
2013-03-22 22:08:00,35.3,19.0,30.03,North,354,0.0,0.0,51,0.00,,---,0.00,VWS V14.01,2013-03-23 02:08:00,
2013-03-22 22:13:00,35.4,19.1,30.03,North,354,0.0,0.0,51,0.00,,---,0.00,VWS V14.01,2013-03-23 02:13:00,
2013-03-22 22:18:00,35.5,18.7,30.03,North,354,0.0,0.0,50,0.00,,---,0.00,VWS V14.01,2013-03-23 02:18:00,
2013-03-22 22:23:00,35.4,18.6,30.03,North,354,0.0,0.0,50,0.00,,---,0.00,VWS V14.01,2013-03-23 02:23:00,
2013-03-22 22:28:00,35.0,20.9,30.04,North,354,0.0,0.0,56,0.00,,---,0.00,VWS V14.01,2013-03-23 02:28:00,
2013-03-22 22:30:00,34.5,20.9,30.04,North,354,0.0,0.0,57,0.00,,---,0.00,VWS V15.00,2013-03-23 02:30:00,
2013-03-22 22:33:00,34.3,21.5,30.04,North,354,0.0,0.0,59,0.00,,---,0.00,VWS V14.01,2013-03-23 02:33:00,
2013-03-22 22:38:00,33.6,21.2,30.04,North,354,0.0,0.0,60,0.00,,---,0.00,VWS V14.01,2013-03-23 02:38:00,
2013-03-22 22:43:00,33.3,20.5,30.04,North,354,0.0,0.0,59,0.00,,---,0.00,VWS V14.01,2013-03-23 02:43:00,
2013-03-22 22:48:00,33.0,21.0,30.04,North,354,0.0,0.0,61,0.00,,---,0.00,VWS V14.01,2013-03-23 02:48:00,
2013-03-22 22:53:00,32.6,21.8,30.04,North,354,0.0,0.0,64,0.00,,---,0.00,VWS V14.01,2013-03-23 02:53:00,
2013-03-22 22:58:00,32.7,21.5,30.04,NNE,19,0.0,0.0,63,0.00,,---,0.00,VWS V14.01,2013-03-23 02:58:00,
2013-03-22 23:00:00,32.7,21.5,30.04,NNE,19,0.0,0.0,63,0.00,,---,0.00,VWS V15.00,2013-03-23 03:00:00,
2013-03-22 23:03:00,32.7,21.5,30.04,NNE,19,0.0,0.0,63,0.00,,---,0.00,VWS V14.01,2013-03-23 03:03:00,
2013-03-22 23:08:00,32.8,20.5,30.03,NNE,19,0.0,0.0,60,0.00,,---,0.00,VWS V14.01,2013-03-23 03:08:00,
2013-03-22 23:13:00,32.7,21.1,30.03,NNE,19,0.0,0.0,62,0.00,,---,0.00,VWS V14.01,2013-03-23 03:13:00,
2013-03-22 23:18:00,32.5,21.3,30.04,NNE,18,0.0,0.0,63,0.00,,---,0.00,VWS V14.01,2013-03-23 03:18:00,
2013-03-22 23:23:00,32.3,21.1,30.04,NNE,19,0.0,0.0,63,0.00,,---,0.00,VWS V14.01,2013-03-23 03:23:00,
2013-03-22 23:28:00,32.6,21.0,30.04,NNE,18,0.0,0.0,62,0.00,,---,0.00,VWS V14.01,2013-03-23 03:28:00,
2013-03-22 23:30:00,32.7,20.8,30.04,NNE,18,0.0,0.0,61,0.00,,---,0.00,VWS V15.00,2013-03-23 03:30:00,
2013-03-22 23:33:00,32.8,20.1,30.04,NNE,18,0.0,0.0,59,0.00,,---,0.00,VWS V14.01,2013-03-23 03:33:00,
2013-03-22 23:38:00,33.2,20.8,30.04,NNE,19,0.0,0.0,60,0.00,,---,0.00,VWS V14.01,2013-03-23 03:38:00,
2013-03-22 23:43:00,33.0,21.8,30.04,NNE,19,0.0,0.0,63,0.00,,---,0.00,VWS V14.01,2013-03-23 03:43:00,
2013-03-22 23:48:00,32.6,21.4,30.04,NNE,19,0.0,0.0,63,0.00,,---,0.00,VWS V14.01,2013-03-23 03:48:00,
2013-03-22 23:53:00,32.3,21.5,30.04,NNE,19,0.0,0.0,64,0.00,,---,0.00,VWS V14.01,2013-03-23 03:53:00,
2013-03-22 23:58:00,32.0,21.6,30.04,NNE,19,0.0,0.0,65,0.00,,---,0.00,VWS V14.01,2013-03-23 03:58:00,